Austin, TX

4:24 AM CDT on June 20, 2018 (GMT -0500)
Austin

Weather History for KATT - February, 2010

Change the Weather History Date:

Sunday, February 14, 2010

  Actual Average Record
Temperature  
Mean Temperature 53 °F 55 °F  
Max Temperature 69 °F 65 °F 86 °F (2014)
Min Temperature 37 °F 45 °F 12 °F (1905)
Degree Days  
Heating Degree Days 12 11  
Month to date heating degree days 270 166  
Since 1 July heating degree days 1486 1206  
Cooling Degree Days 0 1  
Month to date cooling degree days 0 9  
Year to date cooling degree days 2 18  
Growing Degree Days 4 (Base 50)    
Moisture  
Dew Point 38 °F    
Average Humidity 71    
Maximum Humidity 96    
Minimum Humidity 45    
Precipitation  
Precipitation 0.00 in 0.07 in 1.46 in (1969)
Month to date precipitation 2.38 0.98  
Year to date precipitation 5.67 3.20  
Snow  
Snow 0.00 in - - ()
Month to date snowfall T  
Since 1 July snowfall T  
Snow Depth 0.00 in    
Sea Level Pressure  
Sea Level Pressure 30.07 in    
Wind  
Wind Speed 6 mph (North)    
Max Wind Speed 23 mph    
Max Gust Speed 37 mph    
Visibility 9 miles    
Events      
T = Trace of Precipitation, MM = Missing Value Source: NWS Daily Summary

Daily Weather History Graph

Daily Weather History Graph

Search for Another Location

Airport or City:

Astronomy

Feb. 14, 2010 Rise Set
Actual Time 7:12 AM CST 6:18 PM CST
Civil Twilight 6:47 AM CST 6:43 PM CST
Nautical Twilight 6:19 AM CST 7:11 PM CST
Astronomical Twilight 5:51 AM CST 7:39 PM CST
Moon 7:17 AM CST (2/14) 7:03 PM CST (2/14)
Length of Visible Light 11h 55m
Length of Day
11h 06m
New Moon, 0% of the Moon is Illuminated
Feb 14
New Moon
Feb 21
First Quarter
Feb 28
Full
Mar 7
Last Quarter
Mar 15
New

Hourly Weather History & Observations

Time (CST) Temp. Windchill Dew Point Humidity Pressure Visibility Wind Dir Wind Speed Gust Speed Precip Events Conditions
12:51 AM 43.0 °F 41.3 °F 39.0 °F 86% 30.01 in 9.0 mi SW 3.5 mph - N/A   Clear
1:51 AM 43.0 °F - 39.0 °F 86% 30.00 in 10.0 mi Calm Calm - N/A   Clear
2:51 AM 43.0 °F - 41.0 °F 93% 29.99 in 8.0 mi Calm Calm - N/A   Clear
3:51 AM 42.1 °F - 39.0 °F 89% 29.98 in 6.0 mi Calm Calm - N/A   Clear
4:51 AM 42.1 °F - 39.9 °F 92% 29.97 in 6.0 mi Calm Calm - N/A   Clear
5:51 AM 41.0 °F - 39.0 °F 93% 29.98 in 5.0 mi Calm Calm - N/A   Clear
6:51 AM 39.0 °F - 37.0 °F 93% 29.99 in 4.0 mi Calm Calm - N/A   Partly Cloudy
7:51 AM 44.1 °F 42.5 °F 42.1 °F 93% 30.01 in 6.0 mi West 3.5 mph - N/A   Clear
8:51 AM 48.9 °F - 45.0 °F 86% 30.01 in 10.0 mi Calm Calm - N/A   Clear
9:51 AM 54.0 °F - 46.0 °F 75% 30.01 in 10.0 mi West 3.5 mph - N/A   Clear
10:51 AM 61.0 °F - 50.0 °F 67% 30.01 in 10.0 mi SW 6.9 mph - N/A   Partly Cloudy
11:51 AM 64.9 °F - 48.9 °F 56% 30.00 in 10.0 mi Variable 4.6 mph - N/A   Clear
12:51 PM 66.9 °F - 48.0 °F 51% 29.98 in 10.0 mi Variable 3.5 mph - N/A   Scattered Clouds
1:51 PM 66.9 °F - 46.9 °F 49% 29.95 in 10.0 mi Calm Calm - N/A   Scattered Clouds
2:51 PM 68.0 °F - 46.0 °F 45% 29.94 in 10.0 mi North 9.2 mph - N/A   Mostly Cloudy
3:51 PM 51.1 °F - 43.0 °F 74% 30.01 in 8.0 mi NNE 16.1 mph 29.9 mph N/A   Overcast
4:06 PM 48.2 °F - 41.0 °F 76% 30.03 in 7.0 mi NNE 17.3 mph 33.4 mph N/A   Overcast
4:17 PM 46.4 °F 39.8 °F 39.2 °F 76% 30.04 in 7.0 mi North 16.1 mph 28.8 mph N/A   Overcast
4:51 PM 44.1 °F 37.1 °F 36.0 °F 73% 30.09 in 7.0 mi North 15.0 mph 31.1 mph N/A   Overcast
5:11 PM 44.6 °F 36.9 °F 35.6 °F 71% 30.11 in 8.0 mi North 18.4 mph 28.8 mph N/A   Overcast
5:51 PM 43.0 °F 35.4 °F 34.0 °F 71% 30.16 in 10.0 mi North 16.1 mph 31.1 mph N/A   Overcast
6:16 PM 42.8 °F 35.1 °F 32.0 °F 66% 30.16 in 10.0 mi North 16.1 mph 25.3 mph N/A   Overcast
6:51 PM 43.0 °F 36.4 °F 30.9 °F 62% 30.22 in 10.0 mi North 12.7 mph 21.9 mph N/A   Overcast
7:51 PM 42.1 °F 36.6 °F 26.1 °F 53% 30.24 in 10.0 mi North 9.2 mph 27.6 mph N/A   Overcast
8:51 PM 41.0 °F 33.9 °F 25.0 °F 53% 30.27 in 10.0 mi North 12.7 mph 23.0 mph N/A   Overcast
9:51 PM 41.0 °F 34.3 °F 25.0 °F 53% 30.28 in 10.0 mi North 11.5 mph 17.3 mph N/A   Overcast
10:51 PM 39.9 °F 35.1 °F 26.1 °F 58% 30.29 in 10.0 mi North 6.9 mph 17.3 mph N/A   Partly Cloudy
11:51 PM 37.9 °F 32.1 °F 24.1 °F 57% 30.29 in 10.0 mi North 8.1 mph - N/A   Clear